{"data":{"norad_id":66022,"epoch":"2026-09-20T05:20:21.107328Z","epoch_age_seconds":126980,"freshness":"FRESH","line1":"1 66022U 25232T   26263.22246652  .00018414  00000+0  55481-3 0  9991","line2":"2 66022  53.1604 279.3123 0001451  86.0916 274.0252 15.34398050 53238","mean_motion":15.3439805,"eccentricity":0.0001451,"inclination_deg":53.1604,"raan_deg":279.3123,"arg_perigee_deg":86.0916,"mean_anomaly_deg":274.0252,"bstar":0.00055481,"rev_number":5323,"period_min":93.847877348384,"perigee_km":461.71642926436,"apogee_km":463.70164278401,"semimajor_km":6840.8460360242,"source":"CELESTRAK","updated_at":"2026-09-21T09:00:35.771796Z"}}